Location: Namasale
(1.5000°N, 32.6167°E)
Time: 19:30:28
(UTC+00:00)

Envisat - Pass Details

Date: 03 December 2021
Orbit: 764 x 766 km, 98.2° (Epoch: 25 January)

Event Time Altitude Azimuth Distance (km) Brightness Sun altitude
Rises 01:22:49 0° 46° (NE) 3,217 6.5 -32.0°
Reaches altitude 10° 01:26:11 10° 70° (ENE) 2,294 5.9 -31.2°
Maximum altitude 01:28:51 14° 102° (ESE) 2,004 5.9 -30.6°
Drops below altitude 10° 01:31:31 10° 134° (SE) 2,298 6.3 -30.0°
Sets 01:34:53 0° 158° (SSE) 3,226 6.9 -29.2°
